G3ZSS Weather Reports


time (UTC)temp
C
wind
direction
speed
KPH
gust
KPH
rain 1hr
cm
rain 24hr
cm
rain mn
cm
humidity
%
barometer
mb
20260510140004 11 64 3.2 16.1 0.00 0.33 0.33 88 1014.6
20260510135003 11 48 3.2 12.9 0.00 0.33 0.33 88 1014.6
20260510134004 11 339 3.2 12.9 0.00 0.33 0.33 89 1014.6
20260510132003 11 52 1.6 4.8 0.03 0.33 0.33 88 1014.8
20260510131004 10 5 1.6 14.5 0.05 0.33 0.33 88 1014.8
20260510130004 10 320 6.4 22.5 0.08 0.33 0.33 88 1014.5
20260510125004 10 324 14.5 24.1 0.13 0.33 0.33 88 1014.5
20260510124003 11 312 8.0 16.1 0.18 0.33 0.33 89 1014.9
20260510123004 11 312 4.8 9.7 0.20 0.30 0.30 89 1015.1
20260510121004 11 310 6.4 14.5 0.20 0.28 0.28 88 1015.3
20260510120004 10 293 3.2 9.7 0.18 0.23 0.23 88 1015.3
20260510114003 10 300 3.2 9.7 0.10 0.15 0.15 86 1015.4
20260510112004 11 306 6.4 12.9 0.08 0.10 0.10 85 1015.4
20260510111004 11 316 3.2 12.9 0.05 0.08 0.08 85 1015.7
20260510110004 11 348 3.2 8.0 0.05 0.05 0.05 85 1015.8
20260510105003 11 17 3.2 9.7 0.05 0.05 0.05 84 1016.0
20260510104003 11 31 3.2 4.8 0.05 0.05 0.05 84 1016.0
20260510103004 11 7 3.2 20.9 0.03 0.03 0.03 83 1015.6
20260510102003 11 303 8.0 19.3 0.03 0.03 0.03 83 1015.5
20260510100004 11 288 8.0 19.3 0.03 0.03 0.03 82 1015.6
20260510095004 11 286 4.8 16.1 0.00 0.00 0.00 81 1015.6
20260510094003 11 304 4.8 16.1 0.00 0.00 0.00 79 1015.8
20260510093004 11 317 6.4 12.9 0.00 0.00 0.00 77 1015.7
20260510092003 11 295 4.8 16.1 0.00 0.00 0.00 76 1015.7
20260510091004 11 306 4.8 19.3 0.00 0.00 0.00 77 1015.9
20260510090004 11 294 3.2 14.5 0.00 0.00 0.00 78 1015.8
20260510085003 11 314 3.2 12.9 0.00 0.00 0.00 77 1015.8
20260510083003 11 304 3.2 14.5 0.00 0.00 0.00 77 1015.9
20260510082004 11 9 1.6 14.5 0.00 0.00 0.00 77 1015.9
20260510081005 11 301 3.2 12.9 0.00 0.00 0.00 78 1015.9
20260510074003 11 308 4.8 19.3 0.00 0.00 0.00 78 1015.8
20260510072003 11 309 6.4 16.1 0.00 0.00 0.00 79 1015.9
20260510070003 11 320 3.2 14.5 0.00 0.00 0.00 81 1016.0
20260510065003 10 323 4.8 16.1 0.00 0.00 0.00 81 1015.9
20260510063003 10 298 3.2 14.5 0.00 0.00 0.00 82 1016.1
20260510061004 10 303 4.8 16.1 0.00 0.00 0.00 82 1016.2
20260510060004 10 284 3.2 9.7 0.00 0.00 0.00 82 1016.2
20260510055004 10 295 3.2 14.5 0.00 0.00 0.00 82 1016.2
20260510053005 10 308 4.8 9.7 0.00 0.00 0.00 82 1016.1
20260510051003 10 308 3.2 9.7 0.00 0.00 0.00 82 1016.0
20260510050004 10 271 3.2 11.3 0.00 0.00 0.00 82 1015.9
20260510045004 10 278 1.6 14.5 0.00 0.00 0.00 81 1016.0
20260510044004 10 321 8.0 16.1 0.00 0.00 0.00 81 1015.9
20260510043003 10 311 4.8 14.5 0.00 0.00 0.00 81 1015.9
20260510042004 10 288 4.8 14.5 0.00 0.00 0.00 80 1015.9
20260510041003 10 330 4.8 14.5 0.00 0.00 0.00 79 1015.9
20260510040004 10 299 8.0 16.1 0.00 0.00 0.00 78 1016.0
20260510035003 10 313 6.4 12.9 0.00 0.00 0.00 77 1016.0
20260510034004 11 291 6.4 16.1 0.00 0.00 0.00 75 1016.1
20260510033004 11 314 4.8 16.1 0.00 0.00 0.00 74 1016.2
20260510032004 11 305 3.2 11.3 0.00 0.00 0.00 74 1016.1
20260510030003 11 309 4.8 11.3 0.00 0.00 0.00 73 1016.2
20260510024003 11 300 1.6 9.7 0.00 0.00 0.00 72 1016.2
20260510022003 11 96 1.6 4.8 0.00 0.00 0.00 71 1016.1
20260510021004 11 338 3.2 8.0 0.00 0.00 0.00 71 1016.1
20260510020004 11 291 1.6 4.8 0.00 0.00 0.00 70 1016.0
20260510014003 11 280 1.6 11.3 0.00 0.00 0.00 68 1016.2
20260510013004 12 312 1.6 4.8 0.00 0.00 0.00 66 1016.2
20260510012004 12 291 1.6 4.8 0.00 0.00 0.00 66 1016.2
20260510010004 12 67 1.6 4.8 0.00 0.00 0.00 64 1016.3
20260510004004 12 16 1.6 16.1 0.00 0.00 0.00 63 1016.1
20260510003004 12 59 1.6 4.8 0.00 0.00 0.00 61 1016.2
20260510002003 12 37 0.0 8.0 0.00 0.00 0.00 60 1016.2
20260510001003 12 65 1.6 4.8 0.00 0.00 0.00 60 1016.4
20260510000004 12 344 1.6 4.8 0.00 0.00 0.00 60 1016.2
20260509235003 12 217 1.6 8.0 0.00 0.00 0.00 59 1016.0
20260509234004 13 28 1.6 12.9 0.00 0.00 0.00 58 1016.0
20260509233004 13 180 1.6 4.8 0.00 0.00 0.00 57 1016.1
20260509232004 13 64 3.2 12.9 0.00 0.00 0.00 57 1016.1
20260509231004 13 75 3.2 14.5 0.00 0.00 0.00 57 1016.1
20260509230003 13 73 3.2 11.3 0.00 0.00 0.00 56 1016.1
20260509225003 13 49 3.2 4.8 0.00 0.00 0.00 55 1016.1
20260509224004 13 75 3.2 12.9 0.00 0.00 0.00 54 1015.9
20260509223004 13 29 3.2 9.7 0.00 0.00 0.00 53 1015.8
20260509222004 13 51 3.2 11.3 0.00 0.00 0.00 52 1015.9
20260509221004 13 89 3.2 12.9 0.00 0.00 0.00 51 1015.9
20260509215004 13 41 3.2 8.0 0.00 0.00 0.00 50 1015.7
20260509213003 13 349 1.6 11.3 0.00 0.00 0.00 51 1015.8
20260509212004 14 47 3.2 4.8 0.00 0.00 0.00 49 1015.9
20260509211004 14 351 3.2 12.9 0.00 0.00 0.00 49 1015.9
20260509210004 14 69 3.2 11.3 0.00 0.00 0.00 50 1015.7
20260509205003 14 71 3.2 4.8 0.00 0.00 0.00 51 1015.7
20260509202004 15 269 3.2 12.9 0.00 0.00 0.00 50 1015.3
20260509201004 15 344 3.2 12.9 0.00 0.00 0.00 51 1015.2
20260509200004 15 306 3.2 4.8 0.00 0.00 0.00 52 1015.1
20260509195003 16 355 1.6 8.0 0.00 0.00 0.00 53 1015.0
20260509194004 16 259 1.6 4.8 0.00 0.00 0.00 55 1015.0
20260509193004 16 303 1.6 4.8 0.00 0.00 0.00 55 1015.1
20260509192004 17 305 1.6 4.8 0.00 0.00 0.00 55 1015.0
20260509191004 17 67 1.6 4.8 0.00 0.00 0.00 56 1015.1
20260509190004 17 84 3.2 4.8 0.00 0.00 0.00 55 1015.0
20260509185003 17 65 3.2 4.8 0.00 0.00 0.00 54 1014.9
20260509184004 18 68 1.6 3.2 0.00 0.00 0.00 53 1014.6
20260509183004 18 24 3.2 4.8 0.00 0.00 0.00 53 1014.7
20260509182004 18 310 1.6 3.2 0.00 0.00 0.00 53 1014.8
20260509181003 18 355 1.6 4.8 0.00 0.00 0.00 52 1014.8
20260509180004 19 55 1.6 4.8 0.00 0.00 0.00 52 1014.6
20260509175003 19 315 1.6 4.8 0.00 0.00 0.00 51 1014.5
20260509172004 20 59 4.8 8.0 0.00 0.00 0.00 50 1014.4
20260509171003 20 278 1.6 8.0 0.00 0.00 0.00 50 1014.3
20260509170004 20 67 4.8 8.0 0.00 0.00 0.00 50 1014.3
20260509165004 21 74 4.8 9.7 0.00 0.00 0.00 47 1014.4
20260509164004 21 311 1.6 9.7 0.00 0.00 0.00 49 1014.4
20260509162004 20 346 1.6 4.8 0.00 0.00 0.00 52 1014.5
20260509161004 20 80 3.2 8.0 0.00 0.00 0.00 52 1014.5
20260509160004 21 79 3.2 8.0 0.00 0.00 0.00 50 1014.3
20260509154003 21 64 1.6 11.3 0.00 0.00 0.00 50 1014.5
20260509153004 21 106 3.2 11.3 0.00 0.00 0.00 50 1014.6
20260509152004 21 159 3.2 4.8 0.00 0.00 0.00 52 1014.7
20260509151004 21 103 3.2 14.5 0.00 0.00 0.00 51 1014.9
20260509145003 21 166 4.8 11.3 0.00 0.00 0.00 53 1015.2
20260509144004 21 150 4.8 16.1 0.00 0.00 0.00 53 1015.2
20260509143004 21 127 3.2 14.5 0.00 0.00 0.00 52 1015.2
20260509142003 21 160 3.2 12.9 0.00 0.00 0.00 52 1015.1
20260509141003 21 64 3.2 12.9 0.00 0.00 0.00 46 1015.1